COSMOS 2328

Satellite information

Favourite Embed

Satellite Type and Status

PAYLOADIN ORBIT

Key statistics

Satellite COSMOS 2328 at a glance.

Uptime

10843

Days in orbit

Revolutions

≈ 12.6

Per day

Orbit

LEO

Low Earth Orbit

Inclination

82.6

Latest

Satellite identification and parameters

Extended collection of information and parameters for COSMOS 2328.

Object identification

Identified? True

Debris? False

Object name: COSMOS 2328

International designator: 1996-009D

Object number (NORAD): 23790

Object ID (CCSDS): 23790

Country: COMMONWEALTH OF INDEPENDENT STATES (CIS)

Current information (Y/N): Y

RCS size: LARGE

Orbital parameters

Period: 114.051 minutes

Inclination: 82.5732 deg

SMA: 7790.384 km

Apoapsis: 1417.856 km

Periapsis: 1406.642 km

RAAN: 108.5352 deg

Eccentricy: 0.00071977

Argument of periapsis: 221.4301 deg

Mean anomaly: 138.6245 deg

Mean motion: 12.62596115 rev/day

Mean motion (dot): 0.00000018 rev/day2

B* drag term: 0.000039029748 1/REarth

Two-line elements (TLE)

Creation date: Oct. 27, 2025, 2:46 a.m.

Reference frame: TEME

Reference center: EARTH

Epoch: Oct. 26, 2025, 9:43 p.m. UTC

TLE line 0: 0 COSMOS 2328

TLE line 1: 1 23790U 96009D 25299.90501642 .00000018 00000-0 39030-4 0 9997

TLE line 2: 2 23790 82.5732 108.5352 0007198 221.4301 138.6245 12.62596115368039

Live tracking on map

Real-time ground track for satellite COSMOS 2328.

In-orbit conjunctions

There are no conjunctions computed for COSMOS 2328, at the moment. Check back to stay up to date, as we update our databases every day.

Go to all conjunctions

Associated space launch

Gonets- satellite were the civilian derivate of the military Strela-3 satellite system. The Gonets system was offered to support international health organizations to meet their global communications needs for the transfer of medical data and records to remote sites. Strela-3 was the second generation of Russian strategic store-dump military communications satellite. Development of this generation to replace the first generation Strela-1M and Strela-2M satellites began in 1973.

COSMOS 2328 was lifted into orbit during the mission ‘Tsiklon-3 | Gonets-D 319 to 321 & Strela-3 113 to 115’, on board a Tsiklon-3 space rocket.

The launch took place on Feb. 19, 1996, 12:58 a.m. from 32/1.

For more information about the launch, click the button.

Launch to space Tsiklon-3 | Gonets-D 319 to 321 & Strela-3 113 to 115
Tsiklon-3 | Gonets-D 319 to 321 & Strela-3 113 to 115

Agency: N/A

Status: Launch Successful

Launch date: Feb. 19, 1996, 12:58 a.m. UTC

Rocket: Tsiklon-3

Launch pad: 32/1

Location: Plesetsk Cosmodrome, Russian Federation

...

Latest news about this satellite

There are no fresh news available about this satellite. Check back as we update our databases every day.


Newsletter sign-up

Weekly statistics, charts and insights to help you stay on top of the space industry.